Torna al catalogo

SL-8 R/B

AttivoLEO
NORAD 4784·ROCKET BODY·🇷🇺 Russia

Lanciato Dec 2, 1970 da Plesetsk Cosmodrome

Loading…

Prossimi Passaggi (prossime 24 ore)

TLE

AggiornatoSource: Space-Track

Epoca: Sep 14, 2026, 15:37 UTC

1 04784U 70102B   26257.65108119  .00000066  00000-0  89610-4 0  9996
2 04784  74.0283 124.5463 0025493 119.6815 252.4809 13.77013160801488

Traccia SL-8 R/B in tempo reale con AllMySat

Download on the App Store